BAW44D EGLL-LFPG

Flight info

Callsign BAW44D
Flight time 0h 39m
Altitude 25000
Route MODMI M185 MID UL612 BOGNA DCT HARDY UM605 BIBAX
Aircraft A320/M-SDE3FGHIRWY/LB1

Departure

Time 2026-05-08 12:21
Airport London Heathrow Airport (EGLL)

Arrival

Time 2026-05-08 13:00
Airport Charles de Gaulle International Airport (LFPG)
Time Latitude Longitude Altitude Speed Heading
2026-05-08 11:51 51.47146 -0.46503 86 ft 0 kts 237°
2026-05-08 12:05 51.47147 -0.46499 86 ft 2 kts 237°
2026-05-08 12:06 51.47156 -0.46476 89 ft 2 kts 237°
2026-05-08 12:06 51.47165 -0.46454 86 ft 2 kts 237°
2026-05-08 12:06 51.47174 -0.46432 89 ft 2 kts 237°
2026-05-08 12:06 51.47183 -0.46411 90 ft 2 kts 247°
2026-05-08 12:07 51.47185 -0.46387 89 ft 2 kts 314°
2026-05-08 12:07 51.47182 -0.46382 89 ft 0 kts 328°
2026-05-08 12:11 51.47188 -0.46387 86 ft 2 kts 328°
2026-05-08 12:11 51.47209 -0.46409 89 ft 5 kts 328°
2026-05-08 12:11 51.47236 -0.46455 91 ft 6 kts 293°
2026-05-08 12:12 51.47240 -0.46530 87 ft 8 kts 271°
2026-05-08 12:12 51.47240 -0.46631 86 ft 11 kts 269°
2026-05-08 12:12 51.47239 -0.46769 85 ft 14 kts 269°
2026-05-08 12:12 51.47177 -0.46863 86 ft 14 kts 185°
2026-05-08 12:13 51.47078 -0.46867 86 ft 15 kts 180°
2026-05-08 12:13 51.46975 -0.46866 87 ft 14 kts 180°
2026-05-08 12:13 51.46877 -0.46864 87 ft 13 kts 179°
2026-05-08 12:13 51.46799 -0.46862 92 ft 9 kts 179°
2026-05-08 12:14 51.46746 -0.46861 93 ft 8 kts 179°
2026-05-08 12:14 51.46676 -0.46878 94 ft 13 kts 215°
2026-05-08 12:14 51.46657 -0.47044 91 ft 19 kts 270°
2026-05-08 12:14 51.46656 -0.47216 88 ft 14 kts 269°
2026-05-08 12:15 51.46654 -0.47373 86 ft 14 kts 269°
2026-05-08 12:15 51.46654 -0.47521 86 ft 13 kts 270°
2026-05-08 12:15 51.46654 -0.47652 86 ft 12 kts 270°
2026-05-08 12:15 51.46653 -0.47829 87 ft 18 kts 269°
2026-05-08 12:16 51.46657 -0.48017 90 ft 16 kts 274°
2026-05-08 12:16 51.46654 -0.48148 92 ft 10 kts 252°
2026-05-08 12:16 51.46608 -0.48212 93 ft 9 kts 190°
2026-05-08 12:16 51.46596 -0.48212 94 ft 0 kts 179°
2026-05-08 12:18 51.46591 -0.48212 94 ft 2 kts 179°
2026-05-08 12:18 51.46555 -0.48211 93 ft 8 kts 179°
2026-05-08 12:19 51.46489 -0.48180 93 ft 13 kts 131°
2026-05-08 12:19 51.46479 -0.48108 91 ft 0 kts 90°
2026-05-08 12:20 51.46478 -0.47940 90 ft 48 kts 91°
2026-05-08 12:20 51.46482 -0.47044 91 ft 110 kts 89°
2026-05-08 12:20 51.46490 -0.45556 93 ft 156 kts 86°
2026-05-08 12:21 51.46521 -0.43829 688 ft 155 kts 91°
2026-05-08 12:21 51.46534 -0.42124 1445 ft 156 kts 97°
2026-05-08 12:21 51.46146 -0.40460 1928 ft 167 kts 125°
2026-05-08 12:21 51.45423 -0.38859 2247 ft 187 kts 129°
2026-05-08 12:22 51.44745 -0.37924 2429 ft 204 kts 152°
2026-05-08 12:22 51.43325 -0.37161 2832 ft 227 kts 162°
2026-05-08 12:22 51.41741 -0.36383 3392 ft 246 kts 162°
2026-05-08 12:22 51.40045 -0.35815 4276 ft 254 kts 180°
2026-05-08 12:23 51.38335 -0.36519 5245 ft 257 kts 205°
2026-05-08 12:23 51.36737 -0.37836 6236 ft 259 kts 207°
2026-05-08 12:23 51.35160 -0.39149 7151 ft 260 kts 207°
2026-05-08 12:23 51.33535 -0.40499 8032 ft 265 kts 207°
2026-05-08 12:24 51.31882 -0.41868 8890 ft 268 kts 207°
2026-05-08 12:24 51.30200 -0.43215 9727 ft 273 kts 206°
2026-05-08 12:24 51.28460 -0.44576 10348 ft 285 kts 206°
2026-05-08 12:24 51.26608 -0.46021 10608 ft 308 kts 206°
2026-05-08 12:25 51.24642 -0.47575 11133 ft 318 kts 206°
2026-05-08 12:25 51.22644 -0.49166 11797 ft 324 kts 206°
2026-05-08 12:25 51.20616 -0.50759 12501 ft 328 kts 206°
2026-05-08 12:25 51.18540 -0.52372 13260 ft 332 kts 206°
2026-05-08 12:26 51.16451 -0.53986 13990 ft 335 kts 206°
2026-05-08 12:26 51.14338 -0.55612 14638 ft 339 kts 206°
2026-05-08 12:26 51.12229 -0.57236 15247 ft 343 kts 206°
2026-05-08 12:26 51.10072 -0.58878 15845 ft 347 kts 203°
2026-05-08 12:27 51.07755 -0.59960 16481 ft 350 kts 189°
2026-05-08 12:27 51.05307 -0.60089 17134 ft 355 kts 175°
2026-05-08 12:27 51.02886 -0.59245 17732 ft 361 kts 161°
2026-05-08 12:27 51.00641 -0.57436 18390 ft 365 kts 148°
2026-05-08 12:28 50.98527 -0.55172 18963 ft 369 kts 148°
2026-05-08 12:28 50.96378 -0.52875 19463 ft 374 kts 148°
2026-05-08 12:28 50.94206 -0.50558 19954 ft 380 kts 147°
2026-05-08 12:28 50.91992 -0.48199 20473 ft 385 kts 147°
2026-05-08 12:29 50.89751 -0.45820 20981 ft 390 kts 147°
2026-05-08 12:29 50.87472 -0.43399 21468 ft 395 kts 147°
2026-05-08 12:29 50.85195 -0.40985 21873 ft 402 kts 147°
2026-05-08 12:29 50.82850 -0.38501 22354 ft 407 kts 147°
2026-05-08 12:30 50.80475 -0.35989 22874 ft 412 kts 147°
2026-05-08 12:30 50.78081 -0.33465 23359 ft 416 kts 147°
2026-05-08 12:30 50.75680 -0.30941 23806 ft 421 kts 147°
2026-05-08 12:30 50.73226 -0.28283 24231 ft 425 kts 142°
2026-05-08 12:31 50.71061 -0.25173 24626 ft 428 kts 132°
2026-05-08 12:31 50.69218 -0.21463 24977 ft 432 kts 122°
2026-05-08 12:31 50.67756 -0.17282 25068 ft 429 kts 115°
2026-05-08 12:31 50.66490 -0.13130 25086 ft 423 kts 115°
2026-05-08 12:32 50.65217 -0.08963 25091 ft 421 kts 115°
2026-05-08 12:32 50.63942 -0.04795 25088 ft 422 kts 115°
2026-05-08 12:32 50.62661 -0.00625 25102 ft 423 kts 115°
2026-05-08 12:32 50.61373 0.03539 25093 ft 420 kts 115°
2026-05-08 12:33 50.60095 0.07652 25090 ft 419 kts 115°
2026-05-08 12:33 50.58810 0.11774 25093 ft 419 kts 115°
2026-05-08 12:33 50.57518 0.15901 25094 ft 419 kts 115°
2026-05-08 12:33 50.56234 0.20001 25095 ft 419 kts 115°
2026-05-08 12:34 50.54947 0.24114 25090 ft 419 kts 115°
2026-05-08 12:34 50.53661 0.28231 25095 ft 419 kts 115°
2026-05-08 12:34 50.52375 0.32339 25095 ft 419 kts 115°
2026-05-08 12:34 50.51080 0.36461 25090 ft 419 kts 115°
2026-05-08 12:35 50.49789 0.40562 25098 ft 419 kts 115°
2026-05-08 12:35 50.48483 0.44672 25095 ft 420 kts 118°
2026-05-08 12:35 50.46890 0.48503 25111 ft 419 kts 128°
2026-05-08 12:35 50.44925 0.51831 25123 ft 418 kts 138°
2026-05-08 12:36 50.42677 0.54725 25121 ft 417 kts 142°
2026-05-08 12:36 50.40443 0.57525 25116 ft 416 kts 142°
2026-05-08 12:36 50.38180 0.60359 25104 ft 416 kts 142°
2026-05-08 12:36 50.35918 0.63196 25106 ft 417 kts 141°
2026-05-08 12:37 50.33657 0.66037 25099 ft 417 kts 141°
2026-05-08 12:37 50.31398 0.68881 25101 ft 417 kts 141°
2026-05-08 12:37 50.29134 0.71725 25093 ft 417 kts 141°
2026-05-08 12:37 50.26872 0.74557 25097 ft 417 kts 142°
2026-05-08 12:38 50.24597 0.77393 25093 ft 417 kts 142°
2026-05-08 12:38 50.22326 0.80218 25088 ft 417 kts 142°
2026-05-08 12:38 50.20052 0.83047 25093 ft 417 kts 142°
2026-05-08 12:38 50.17802 0.85842 25081 ft 418 kts 142°
2026-05-08 12:39 50.15529 0.88669 25076 ft 419 kts 142°
2026-05-08 12:39 50.13244 0.91514 25073 ft 419 kts 142°
2026-05-08 12:39 50.10965 0.94345 25088 ft 418 kts 142°
2026-05-08 12:39 50.08691 0.97157 24779 ft 417 kts 142°
2026-05-08 12:40 50.06399 0.99935 24266 ft 415 kts 146°
2026-05-08 12:40 50.03935 1.02171 23986 ft 405 kts 155°
2026-05-08 12:40 50.01435 1.04046 23853 ft 394 kts 155°
2026-05-08 12:40 49.98991 1.05892 23571 ft 388 kts 155°
2026-05-08 12:41 49.96577 1.07716 23162 ft 384 kts 155°
2026-05-08 12:41 49.94177 1.09522 22601 ft 383 kts 155°
2026-05-08 12:41 49.91780 1.11326 22140 ft 381 kts 155°
2026-05-08 12:41 49.89403 1.13111 21682 ft 378 kts 155°
2026-05-08 12:42 49.87047 1.14877 21309 ft 373 kts 155°
2026-05-08 12:42 49.84730 1.16613 20977 ft 368 kts 155°
2026-05-08 12:42 49.82433 1.18335 20650 ft 365 kts 155°
2026-05-08 12:42 49.80154 1.20041 20318 ft 362 kts 155°
2026-05-08 12:43 49.77890 1.21727 19989 ft 360 kts 156°
2026-05-08 12:43 49.75643 1.23401 19653 ft 357 kts 156°
2026-05-08 12:43 49.73411 1.25058 19336 ft 355 kts 156°
2026-05-08 12:43 49.71193 1.26705 19017 ft 352 kts 156°
2026-05-08 12:44 49.68991 1.28340 18690 ft 349 kts 156°
2026-05-08 12:44 49.66811 1.29959 18371 ft 346 kts 156°
2026-05-08 12:44 49.64652 1.31564 18031 ft 343 kts 155°
2026-05-08 12:44 49.62502 1.33160 17718 ft 342 kts 155°
2026-05-08 12:45 49.60363 1.34749 17402 ft 340 kts 156°
2026-05-08 12:45 49.58258 1.36308 17102 ft 339 kts 156°
2026-05-08 12:45 49.56136 1.37871 16789 ft 337 kts 156°
2026-05-08 12:45 49.54027 1.39426 16477 ft 335 kts 156°
2026-05-08 12:46 49.51943 1.40962 16181 ft 333 kts 156°
2026-05-08 12:46 49.49854 1.42501 15877 ft 331 kts 156°
2026-05-08 12:46 49.47787 1.44019 15577 ft 329 kts 156°
2026-05-08 12:46 49.45719 1.45540 15280 ft 328 kts 156°
2026-05-08 12:47 49.43666 1.47054 14978 ft 326 kts 156°
2026-05-08 12:47 49.41633 1.48551 14681 ft 323 kts 156°
2026-05-08 12:47 49.39608 1.50037 14383 ft 323 kts 155°
2026-05-08 12:47 49.37583 1.51516 14095 ft 322 kts 155°
2026-05-08 12:48 49.35567 1.52986 13803 ft 320 kts 155°
2026-05-08 12:48 49.33663 1.54745 13487 ft 320 kts 143°
2026-05-08 12:48 49.32074 1.57112 13205 ft 319 kts 130°
2026-05-08 12:48 49.30701 1.59770 12938 ft 317 kts 130°
2026-05-08 12:49 49.29326 1.62411 12676 ft 316 kts 130°
2026-05-08 12:49 49.27960 1.65037 12413 ft 314 kts 130°
2026-05-08 12:49 49.26602 1.67650 12155 ft 313 kts 130°
2026-05-08 12:49 49.25248 1.70260 11894 ft 311 kts 129°
2026-05-08 12:50 49.23914 1.72833 11573 ft 307 kts 129°
2026-05-08 12:50 49.22590 1.75386 11184 ft 306 kts 129°
2026-05-08 12:50 49.21271 1.77927 10782 ft 305 kts 129°
2026-05-08 12:50 49.19954 1.80466 10388 ft 304 kts 129°
2026-05-08 12:51 49.18647 1.82977 10186 ft 297 kts 129°
2026-05-08 12:51 49.16128 1.87806 9637 ft 289 kts 128°
2026-05-08 12:51 49.14863 1.90229 9219 ft 290 kts 128°
2026-05-08 12:52 49.13617 1.92612 8771 ft 285 kts 128°
2026-05-08 12:52 49.11156 1.97313 7460 ft 281 kts 128°
2026-05-08 12:52 49.09948 1.99620 6969 ft 275 kts 128°
2026-05-08 12:53 49.08748 2.01908 6275 ft 277 kts 128°
2026-05-08 12:53 49.07553 2.04187 5696 ft 272 kts 128°
2026-05-08 12:53 49.06403 2.06377 5464 ft 255 kts 127°
2026-05-08 12:53 49.05333 2.08410 5350 ft 235 kts 128°
2026-05-08 12:54 49.04351 2.10267 5257 ft 216 kts 127°
2026-05-08 12:54 49.03432 2.12004 5157 ft 205 kts 127°
2026-05-08 12:54 49.02560 2.13658 5098 ft 195 kts 127°
2026-05-08 12:54 49.01729 2.15233 5005 ft 194 kts 127°
2026-05-08 12:55 49.00967 2.16948 4897 ft 195 kts 112°
2026-05-08 12:55 49.00639 2.18927 4690 ft 193 kts 92°
2026-05-08 12:55 49.00714 2.20957 4449 ft 191 kts 84°
2026-05-08 12:55 49.00831 2.22951 4196 ft 186 kts 84°
2026-05-08 12:56 49.00943 2.24902 3947 ft 185 kts 84°
2026-05-08 12:56 49.01054 2.26848 3704 ft 183 kts 84°
2026-05-08 12:56 49.01162 2.28768 3464 ft 181 kts 84°
2026-05-08 12:56 49.01269 2.30679 3222 ft 181 kts 85°
2026-05-08 12:57 49.01377 2.32593 2979 ft 182 kts 84°
2026-05-08 12:57 49.01482 2.34481 2735 ft 177 kts 85°
2026-05-08 12:57 49.01585 2.36337 2502 ft 175 kts 84°
2026-05-08 12:57 49.01686 2.38155 2287 ft 172 kts 84°
2026-05-08 12:58 49.01787 2.39979 2033 ft 167 kts 85°
2026-05-08 12:58 49.01876 2.41604 1816 ft 146 kts 84°
2026-05-08 12:58 49.01958 2.43088 1637 ft 138 kts 84°
2026-05-08 12:58 49.02031 2.44512 1441 ft 134 kts 86°
2026-05-08 12:59 49.02100 2.45903 1225 ft 131 kts 86°
2026-05-08 12:59 49.02185 2.47305 1053 ft 135 kts 85°
2026-05-08 12:59 49.02268 2.48729 874 ft 135 kts 84°
2026-05-08 12:59 49.02352 2.50161 663 ft 135 kts 85°
2026-05-08 13:00 49.02422 2.51583 504 ft 134 kts 84°
2026-05-08 13:00 49.02496 2.52990 364 ft 129 kts 84°
2026-05-08 13:00 49.02554 2.54019 358 ft 55 kts 85°
2026-05-08 13:00 49.02568 2.54290 357 ft 12 kts 88°
2026-05-08 13:01 49.02566 2.54433 359 ft 16 kts 92°
2026-05-08 13:01 49.02539 2.54605 356 ft 17 kts 104°
2026-05-08 13:01 49.02508 2.54789 358 ft 19 kts 104°
2026-05-08 13:01 49.02475 2.54984 359 ft 18 kts 104°
2026-05-08 13:02 49.02449 2.55153 359 ft 15 kts 93°
2026-05-08 13:02 49.02452 2.55320 362 ft 17 kts 83°
2026-05-08 13:02 49.02461 2.55468 354 ft 12 kts 86°
2026-05-08 13:02 49.02444 2.55594 362 ft 14 kts 138°
2026-05-08 13:03 49.02344 2.55621 356 ft 16 kts 175°
2026-05-08 13:03 49.02223 2.55636 358 ft 19 kts 175°
2026-05-08 13:03 49.02183 2.55641 362 ft 0 kts 175°
2026-05-08 13:04 49.02171 2.55642 360 ft 4 kts 175°
2026-05-08 13:05 49.02109 2.55638 358 ft 13 kts 199°
2026-05-08 13:05 49.02064 2.55515 357 ft 15 kts 265°
2026-05-08 13:05 49.02054 2.55341 354 ft 18 kts 265°
2026-05-08 13:05 49.02043 2.55146 360 ft 19 kts 265°
2026-05-08 13:06 49.02036 2.55031 354 ft 16 kts 263°
2026-05-08 13:06 49.01987 2.54866 358 ft 18 kts 220°
2026-05-08 13:06 49.01881 2.54851 358 ft 16 kts 175°
2026-05-08 13:06 49.01769 2.54865 354 ft 16 kts 175°
2026-05-08 13:07 49.01652 2.54880 354 ft 13 kts 175°
2026-05-08 13:07 49.01589 2.54888 358 ft 14 kts 175°
2026-05-08 13:07 49.01482 2.54902 359 ft 17 kts 174°
2026-05-08 13:07 49.01360 2.54937 359 ft 19 kts 163°
2026-05-08 13:08 49.01245 2.54988 356 ft 9 kts 165°
2026-05-08 13:08 49.01233 2.54993 354 ft 1 kts 165°
2026-05-08 13:08 49.01195 2.55008 357 ft 13 kts 165°
2026-05-08 13:08 49.01083 2.55056 356 ft 19 kts 164°
2026-05-08 13:09 49.00942 2.55116 362 ft 23 kts 164°
2026-05-08 13:09 49.00793 2.55181 362 ft 18 kts 164°
2026-05-08 13:09 49.00660 2.55241 354 ft 22 kts 163°
2026-05-08 13:09 49.00533 2.55295 363 ft 18 kts 165°
2026-05-08 13:10 49.00426 2.55340 359 ft 6 kts 164°
2026-05-08 13:10 49.00424 2.55341 359 ft 1 kts 164°
2026-05-08 13:10 49.00403 2.55350 361 ft 6 kts 164°
2026-05-08 13:10 49.00343 2.55376 360 ft 12 kts 164°
2026-05-08 13:11 49.00239 2.55420 356 ft 19 kts 164°
2026-05-08 13:11 49.00119 2.55472 357 ft 14 kts 163°
2026-05-08 13:11 49.00031 2.55511 357 ft 14 kts 164°
2026-05-08 13:11 48.99929 2.55561 357 ft 17 kts 154°
2026-05-08 13:12 48.99844 2.55693 354 ft 19 kts 116°
2026-05-08 13:12 48.99807 2.55904 356 ft 22 kts 101°
2026-05-08 13:12 48.99801 2.56054 362 ft 14 kts 88°
2026-05-08 13:12 48.99808 2.56214 354 ft 17 kts 84°
2026-05-08 13:13 48.99822 2.56404 354 ft 19 kts 84°
2026-05-08 13:13 48.99833 2.56594 354 ft 15 kts 85°
2026-05-08 13:13 48.99842 2.56771 354 ft 18 kts 85°
2026-05-08 13:13 48.99850 2.56919 354 ft 15 kts 83°
2026-05-08 13:14 48.99927 2.57000 354 ft 14 kts 357°
2026-05-08 13:14 49.00031 2.56989 354 ft 13 kts 355°
2026-05-08 13:14 49.00101 2.56978 354 ft 3 kts 352°
2026-05-08 13:14 49.00131 2.56962 357 ft 6 kts 338°
2026-05-08 13:15 49.00178 2.56930 360 ft 9 kts 336°
2026-05-08 13:15 49.00216 2.56905 358 ft 2 kts 336°
2026-05-08 13:15 49.00226 2.56899 356 ft 0 kts 337°